Preview of NWS' New Version of Forecast
This preview is not operational and should not be used for support decisions.

Regional Weather Roundup (RWR)

Issued by National Weather Service (NWS)

                            
000
ASUS44 KLIX 221014
RWRLA 
LOUISIANA WEATHER ROUNDUP
NATIONAL WEATHER SERVICE NEW ORLEANS LA
500 AM CDT MON APR 22 2019

NOTE: "FAIR" INDICATES FEW OR NO CLOUDS BELOW 12,000 FEET WITH NO
      SIGNIFICANT WEATHER AND/OR OBSTRUCTIONS TO VISIBILITY.
      SKY/WX - SKY CONDITION AND SIGNIFICANT WEATHER.
      TMP - AIR TEMPERATURE.    DP   - DEWPOINT TEMPERATURE.
      RH  - RELATIVE HUMIDITY.  PRES - PRESSURE.
      HX  - HEAT INDEX.         WCI  - WIND CHILL INDEX.

*  THESE STATIONS ARE NOT NWS OR FAA STATIONS AND ARE NOT UNDER
   NWS QUALITY CONTROL.

LAZ040-048-061>063-065-066-069-221100-
SOUTHEAST LOUISIANA
  
CITY           SKY/WX    TMP DP  RH WIND       PRES   REMARKS
N.O. INTL ARPT FAIR      56  50  80 E3        30.14S                  
N.O. LAKEFRONT FAIR      61  55  81 SE5       30.15S                  
N.O. DOWNTOWN* FAIR      64  52  64 SE3       30.16R                  
RESERVE*       FAIR      53  51  93 CALM      30.14S                  
SLIDELL        FAIR      46  42  86 N3        30.15S                  
BATON ROUGE    FAIR      49  47  93 NE5       30.13F                  
BOOTHVILLE     FAIR      59  55  87 E5        30.15R                  
BELLE CHASSE   FAIR      50  49  96 CALM      30.14S                  
BOGALUSA*      NOT AVBL                                               
GALLIANO*      FAIR      49  45  86 CALM      30.13S                  
NEW ROADS*     NOT AVBL                                               
GONZALES*      FAIR      49  49  98 CALM      30.13S                  
HAMMOND*       FAIR      45  45 100 CALM      30.15S                  
HOUMA*         FAIR      54  54  99 CALM      30.13S FOG              
PORT FOURCHON* SUNNY     68  55  64 SE7       30.13S                  

$$

LAZ041-044-053-054-221100-
SOUTHWEST LOUISIANA
  
CITY           SKY/WX    TMP DP  RH WIND       PRES   REMARKS
LAKE CHARLES   FAIR      58  56  93 CALM      30.09S                  
LAFAYETTE      FAIR      58  56  93 CALM      30.11S                  
PATTERSON      FAIR      56  56 100 E3        30.13S FOG              
SALT POINT       N/A    N/A N/A N/A CALM      30.10S                  
NEW IBERIA     FAIR      55  54  96 SE5       30.12S                  
CHENAULT AIRPK FAIR      57  56  99 CALM      30.10R                  

$$

LAZ027-028-221100-
CENTRAL LOUISIANA
  
CITY           SKY/WX    TMP DP  RH WIND       PRES   REMARKS
FORT POLK      FAIR      56  55  95 CALM      30.09R                  
ALEXANDRIA INT NOT AVBL                                               
ALEXANDRIA     FAIR      47  45  93 CALM      30.11S FOG              

$$

LAZ001-002-221100-
NORTHWEST LOUISIANA
  
CITY           SKY/WX    TMP DP  RH WIND       PRES   REMARKS
SHREVEPORT     CLOUDY    56  54  93 SE6       30.06S                  
BARKSDALE AFB  MOCLDY    55  55 100 SE6       30.07S                  
DTN SHREVEPORT CLOUDY    59  54  83 SE6       30.07S                  

$$

LAZ014-016-221100-
NORTHEAST LOUISIANA
  
CITY           SKY/WX    TMP DP  RH WIND       PRES   REMARKS
MONROE         NOT AVBL                                               
TALLULAH       FAIR      56  51  84 CALM      30.14S                  

$$